Location: Chomutov
(50.4500°N, 13.4333°E)
Time: 18:38:26
(UTC+02:00)

FO-29 - Visible Passes

Search period start: 25 September 2021 00:00
Search period end: 05 October 2021 00:00
Orbit: 801 x 1320 km, 98.6° (Epoch: 24 September)

Date Brightness Start Highest point End Pass type
(mag) Time Alt. Az. Time Alt. Az. Time Alt. Az.
25 Sep 11.4 19:24:34 10° E 19:29:58 21° NE 19:35:27 10° N visible
25 Sep 10.1 21:09:31 30° SE 21:13:40 68° ENE 21:21:30 10° N visible
25 Sep 11.3 22:56:00 25° SW 22:59:11 34° W 23:06:11 10° NNW visible
26 Sep 10.7 20:13:52 16° ESE 20:19:10 37° ENE 20:26:09 10° N visible
26 Sep 10.3 22:00:21 37° S 22:03:42 68° W 22:11:36 10° NNW visible
26 Sep 12.1 23:46:50 13° WSW 23:50:11 17° W 23:54:51 10° NW visible
27 Sep 11.4 19:19:50 10° E 19:25:07 20° NE 19:30:26 10° N visible
27 Sep 10.1 21:04:42 31° SE 21:08:46 65° ENE 21:16:33 10° N visible
27 Sep 11.2 22:51:12 27° SW 22:54:11 36° W 23:01:19 10° NNW visible
28 Sep 10.8 20:09:04 16° ESE 20:14:18 35° ENE 20:21:10 10° N visible
28 Sep 10.2 21:55:34 39° S 21:58:46 71° WSW 22:06:41 10° NNW visible
28 Sep 12.0 23:42:03 14° WSW 23:45:08 18° W 23:50:08 10° NW visible
29 Sep 11.4 19:15:07 10° E 19:20:15 20° NE 19:25:23 10° N visible
29 Sep 10.1 20:59:56 31° SE 21:03:52 62° ENE 21:11:35 10° N visible
29 Sep 11.2 22:46:25 29° SW 22:49:13 38° W 22:56:25 10° NNW visible
30 Sep 10.8 20:04:18 16° ESE 20:09:25 34° ENE 20:16:11 10° N visible
30 Sep 10.2 21:50:47 42° S 21:53:50 75° WSW 22:01:44 10° NNW visible
30 Sep 12.0 23:37:17 16° WSW 23:40:06 19° W 23:45:21 10° NW visible
01 Oct 11.5 19:10:25 10° E 19:15:24 19° NE 19:20:21 10° N visible
01 Oct 10.2 20:55:10 32° SE 20:58:58 60° ENE 21:06:37 10° N visible
01 Oct 11.1 22:41:39 32° SW 22:44:14 40° W 22:51:31 10° NNW visible
02 Oct 10.9 19:59:33 16° ESE 20:04:33 32° NE 20:11:10 10° N visible
02 Oct 10.1 21:46:02 44° S 21:48:55 78° WSW 21:56:47 10° NNW visible
02 Oct 11.9 23:32:32 17° WSW 23:35:05 20° W 23:40:32 10° NW visible
03 Oct 11.5 19:05:45 10° E 19:10:32 18° NE 19:15:16 10° N visible
03 Oct 10.2 20:50:25 32° SE 20:54:04 57° ENE 21:01:38 10° N visible
03 Oct 11.0 22:36:55 34° SW 22:39:16 42° W 22:46:36 10° NNW visible
04 Oct 10.9 19:54:48 16° ESE 19:59:40 31° NE 20:06:08 10° N visible
04 Oct 10.1 21:41:18 47° S 21:43:59 82° WSW 21:51:49 10° NNW visible
04 Oct 11.8 23:27:48 19° WSW 23:30:03 21° W 23:35:43 10° NW visible
